KN6CRX-10 Weather Reports


time (UTC)temp
C
wind
direction
speed
KPH
gust
KPH
rain 1hr
cm
rain 24hr
cm
rain mn
cm
humidity
%
barometer
mb
20260901160914 19 90 1.6 1.6 0.00 0.03 0.03 64 1020.2
20260901160411 18 102 0.0 0.0 0.00 0.03 0.03 69 1020.1
20260901155910 18 102 0.0 0.0 0.00 0.03 0.03 70 1020.3
20260901155410 17 148 0.0 0.0 0.00 0.03 0.03 72 1020.2
20260901154907 17 149 0.0 0.0 0.00 0.03 0.03 72 1020.5
20260901154405 17 155 3.2 3.2 0.00 0.03 0.03 75 1020.2
20260901153901 17 133 1.6 1.6 0.00 0.03 0.03 77 1020.3
20260901153400 16 153 0.0 0.0 0.00 0.03 0.03 80 1020.3
20260901152900 16 167 1.6 1.6 0.00 0.03 0.03 80 1020.5
20260901152354 16 167 1.6 1.6 0.00 0.03 0.03 81 1020.3
20260901151850 15 168 1.6 1.6 0.00 0.03 0.03 84 1020.3
20260901151350 15 183 1.6 1.6 0.00 0.03 0.03 84 1020.2
20260901150849 15 183 0.0 0.0 0.00 0.03 0.03 84 1020.3
20260901150347 15 183 1.6 1.6 0.00 0.03 0.03 85 1020.3
20260901145844 15 183 0.0 0.0 0.00 0.03 0.03 87 1020.5
20260901145344 15 183 0.0 0.0 0.00 0.03 0.03 87 1020.5
20260901144839 15 183 1.6 1.6 0.00 0.03 0.03 87 1020.6
20260901144335 15 183 0.0 0.0 0.00 0.03 0.03 87 1020.6
20260901143831 14 183 0.0 0.0 0.00 0.03 0.03 89 1020.6
20260901143326 14 183 0.0 0.0 0.00 0.03 0.03 89 1020.5
20260901142823 14 183 0.0 0.0 0.00 0.03 0.03 89 1020.0
20260901142322 13 183 0.0 0.0 0.00 0.03 0.03 91 1020.3
20260901141817 13 183 0.0 0.0 0.00 0.03 0.03 92 1020.2
20260901141312 13 183 0.0 0.0 0.00 0.03 0.03 94 1020.2
20260901140811 13 183 0.0 0.0 0.00 0.03 0.03 95 1020.1
20260901140309 13 183 0.0 0.0 0.00 0.03 0.03 95 1020.2
20260901135804 13 183 0.0 0.0 0.00 0.03 0.03 95 1019.9
20260901135259 13 183 0.0 0.0 0.00 0.03 0.03 95 1020.2
20260901134755 12 183 0.0 0.0 0.00 0.03 0.03 96 1019.9
20260901134255 12 183 0.0 0.0 0.00 0.03 0.03 96 1020.0
20260901133754 12 183 0.0 0.0 0.00 0.03 0.03 96 1020.0
20260901133254 12 183 0.0 0.0 0.00 0.03 0.03 96 1019.9
20260901132753 12 183 0.0 0.0 0.00 0.03 0.03 96 1019.9
20260901132248 12 184 1.6 1.6 0.00 0.03 0.03 96 1020.0
20260901131743 12 183 0.0 0.0 0.00 0.03 0.03 97 1020.1
20260901131242 12 183 0.0 0.0 0.00 0.03 0.03 97 1020.2
20260901130737 12 183 0.0 0.0 0.00 0.03 0.03 97 1020.0
20260901130237 12 184 0.0 0.0 0.00 0.03 0.03 97 1020.1
20260901125735 12 184 0.0 0.0 0.00 0.03 0.03 97 1019.9
20260901125230 12 184 0.0 0.0 0.00 0.03 0.03 96 1019.9
20260901124730 12 184 0.0 0.0 0.00 0.03 0.03 96 1020.0
20260901124225 12 184 0.0 0.0 0.00 0.03 0.03 96 1020.0
20260901123724 12 184 0.0 0.0 0.00 0.03 0.03 96 1019.9
20260901123219 12 184 0.0 0.0 0.00 0.03 0.03 95 1020.1
20260901122718 12 184 0.0 0.0 0.00 0.03 0.03 95 1020.1
20260901122213 12 184 0.0 0.0 0.00 0.03 0.03 95 1019.9
20260901121707 12 184 0.0 0.0 0.00 0.03 0.03 95 1020.1
20260901121203 13 184 0.0 0.0 0.00 0.03 0.03 94 1020.0
20260901120701 13 184 0.0 0.0 0.00 0.03 0.03 94 1020.0
20260901120157 13 184 0.0 0.0 0.00 0.03 0.03 94 1020.0
20260901115652 13 184 0.0 0.0 0.00 0.03 0.03 94 1019.9
20260901115148 13 184 1.6 1.6 0.00 0.03 0.03 94 1019.9
20260901114645 13 166 3.2 3.2 0.00 0.03 0.03 93 1020.0
20260901114144 13 160 1.6 1.6 0.00 0.03 0.03 93 1020.0
20260901113643 13 160 1.6 1.6 0.00 0.03 0.03 93 1019.8
20260901113139 13 141 0.0 0.0 0.00 0.03 0.03 93 1020.0
20260901112638 13 141 0.0 0.0 0.00 0.03 0.03 93 1019.9
20260901112138 13 141 0.0 0.0 0.00 0.03 0.03 93 1020.0
20260901111637 13 141 0.0 0.0 0.00 0.03 0.03 93 1019.7
20260901111132 13 141 0.0 0.0 0.00 0.03 0.03 93 1019.9
20260901110627 14 141 0.0 0.0 0.00 0.03 0.03 93 1019.7
20260901110122 14 141 0.0 0.0 0.00 0.03 0.03 93 1019.8
20260901105619 14 141 0.0 0.0 0.00 0.03 0.03 93 1019.9
20260901105118 14 141 0.0 0.0 0.00 0.03 0.03 93 1019.9
20260901104614 14 141 0.0 0.0 0.00 0.03 0.03 93 1019.9
20260901104109 14 141 0.0 0.0 0.00 0.03 0.03 93 1019.9
20260901103609 14 141 0.0 0.0 0.00 0.03 0.03 92 1020.2
20260901103104 14 141 0.0 0.0 0.00 0.03 0.03 91 1020.0
20260901102605 14 141 0.0 0.0 0.00 0.03 0.03 92 1020.0
20260901102104 14 141 0.0 0.0 0.00 0.03 0.03 92 1019.8
20260901101601 14 141 0.0 0.0 0.00 0.03 0.03 92 1019.8
20260901101059 14 141 0.0 0.0 0.00 0.03 0.03 93 1020.0
20260901100559 14 141 0.0 0.0 0.18 0.03 0.03 93 1019.9
20260901100054 14 141 0.0 0.0 0.18 0.03 0.03 93 1019.8
20260901095552 14 141 0.0 0.0 0.18 0.03 0.03 92 1020.1
20260901095050 14 141 0.0 0.0 0.00 0.00 0.00 92 1019.8
20260901094545 14 141 0.0 0.0 0.00 0.00 0.00 92 1020.0
20260901094045 14 141 0.0 0.0 0.00 0.00 0.00 91 1019.9
20260901093539 14 141 0.0 0.0 0.00 0.00 0.00 91 1019.8
20260901093034 14 141 0.0 0.0 0.00 0.00 0.00 89 1020.0
20260901092530 15 141 0.0 0.0 0.00 0.00 0.00 88 1020.0
20260901092026 15 141 0.0 0.0 0.00 0.00 0.00 87 1019.9
20260901091522 15 141 0.0 0.0 0.00 0.00 0.00 85 1019.9
20260901091021 15 141 0.0 0.0 0.00 0.00 0.00 82 1019.9
20260901090521 15 141 0.0 0.0 0.00 0.00 0.00 79 1020.0
20260901090017 15 141 0.0 0.0 0.00 0.00 0.00 78 1019.9
20260901085512 15 141 1.6 1.6 0.00 0.00 0.00 77 1019.9
20260901085009 15 141 1.6 1.6 0.00 0.00 0.00 78 1019.9
20260901084504 15 141 1.6 1.6 0.00 0.00 0.00 77 1020.0
20260901084001 15 141 0.0 0.0 0.00 0.00 0.00 77 1019.9
20260901083500 15 141 0.0 0.0 0.00 0.00 0.00 76 1019.9
20260901082958 16 141 0.0 0.0 0.00 0.00 0.00 76 1019.8
20260901082454 16 141 0.0 0.0 0.00 0.00 0.00 75 1020.0
20260901081949 16 141 0.0 0.0 0.00 0.00 0.00 75 1019.9
20260901081444 16 141 0.0 0.0 0.00 0.00 0.00 73 1019.9
20260901080939 16 141 0.0 0.0 0.00 0.00 0.00 74 1020.0
20260901080438 16 141 0.0 0.0 0.00 0.00 0.00 74 1019.9
20260901075938 16 141 0.0 0.0 0.00 0.00 0.00 74 1019.8
20260901075434 16 141 1.6 1.6 0.00 0.00 0.00 74 1020.1
20260901074933 16 141 0.0 0.0 0.00 0.00 0.00 75 1019.7
20260901074433 16 141 0.0 0.0 0.00 0.00 0.00 75 1019.7
20260901073928 16 141 0.0 0.0 0.00 0.00 0.00 75 1019.8
20260901073426 16 141 0.0 0.0 0.00 0.00 0.00 76 1019.9
20260901072925 16 141 0.0 0.0 0.00 0.00 0.00 75 1019.7
20260901072420 16 147 0.0 0.0 0.00 0.00 0.00 76 1019.8
20260901071915 15 151 0.0 0.0 0.00 0.00 0.00 77 1019.8
20260901071414 15 155 1.6 1.6 0.00 0.00 0.00 77 1020.2
20260901070914 15 165 0.0 0.0 0.00 0.00 0.00 80 1019.9
20260901070409 15 165 0.0 0.0 0.00 0.00 0.00 80 1020.0
20260901065908 15 165 0.0 0.0 0.00 0.00 0.00 80 1019.9
20260901065403 15 165 0.0 0.0 0.00 0.00 0.00 81 1020.2
20260901064859 15 166 0.0 0.0 0.00 0.00 0.00 80 1020.1
20260901064355 15 166 0.0 0.0 0.00 0.00 0.00 80 1020.2
20260901063852 15 166 1.6 1.6 0.00 0.00 0.00 78 1020.0
20260901063348 15 152 3.2 3.2 0.00 0.00 0.00 76 1020.2
20260901062844 15 155 3.2 3.2 0.00 0.00 0.00 76 1020.6
20260901062340 15 145 1.6 1.6 0.00 0.00 0.00 76 1020.2
20260901061835 16 145 1.6 1.6 0.00 0.00 0.00 76 1020.1
20260901061331 16 145 0.0 0.0 0.00 0.00 0.00 74 1020.1
20260901060826 16 145 0.0 0.0 0.00 0.00 0.00 74 1020.2
20260901060322 16 148 1.6 1.6 0.00 0.00 0.00 70 1020.2
20260901055821 16 149 0.0 0.0 0.00 0.00 0.00 70 1019.9
20260901055318 16 148 3.2 3.2 0.00 0.00 0.00 69 1020.2
20260901054814 16 144 1.6 1.6 0.00 0.00 0.00 72 1020.0
20260901054311 16 145 0.0 0.0 0.00 0.00 0.00 74 1020.0
20260901053806 16 145 0.0 0.0 0.00 0.00 0.00 73 1020.0
20260901053302 16 145 0.0 0.0 0.00 0.00 0.00 71 1020.1
20260901052757 16 145 0.0 0.0 0.00 0.00 0.00 71 1020.0
20260901052252 16 145 0.0 0.0 0.00 0.00 0.00 71 1020.1
20260901051751 16 145 0.0 0.0 0.00 0.00 0.00 71 1020.2
20260901051246 16 145 0.0 0.0 0.00 0.00 0.00 71 1020.2
20260901050741 16 145 0.0 0.0 0.00 0.00 0.00 72 1020.3
20260901050237 16 145 0.0 0.0 0.00 0.00 0.00 72 1020.1
20260901045732 16 145 0.0 0.0 0.00 0.00 0.00 73 1020.5
20260901045227 16 145 0.0 0.0 0.00 0.00 0.00 73 1020.2
20260901044722 16 147 0.0 0.0 0.00 0.00 0.00 73 1020.0
20260901044218 16 147 0.0 0.0 0.00 0.00 0.00 73 1020.1
20260901043714 16 149 0.0 0.0 0.00 0.00 0.00 73 1020.0
20260901043209 16 151 0.0 0.0 0.00 0.00 0.00 72 1020.2
20260901042708 16 151 0.0 0.0 0.00 0.00 0.00 72 1020.1
20260901042203 16 156 1.6 1.6 0.00 0.00 0.00 72 1020.2
20260901041700 16 151 1.6 1.6 0.00 0.00 0.00 72 1020.3
20260901041159 16 188 3.2 3.2 0.00 0.00 0.00 71 1020.2
20260901040654 16 203 1.6 1.6 0.00 0.00 0.00 71 1020.0
20260901040153 16 206 6.4 6.4 0.00 0.00 0.00 70 1020.2
20260901035651 16 190 6.4 9.7 0.00 0.00 0.00 70 1020.0
20260901035151 16 163 3.2 3.2 0.00 0.00 0.00 72 1020.1
20260901034650 16 157 4.8 4.8 0.00 0.00 0.00 73 1020.0
20260901034150 16 167 1.6 1.6 0.00 0.00 0.00 73 1020.0
20260901033650 16 152 3.2 4.8 0.00 0.00 0.00 73 1019.9
20260901033149 16 172 1.6 3.2 0.00 0.00 0.00 74 1020.2
20260901032648 16 160 4.8 9.7 0.00 0.00 0.00 74 1020.2
20260901032143 15 223 9.7 12.9 0.00 0.00 0.00 76 1020.1
20260901031638 15 181 3.2 3.2 0.00 0.00 0.00 77 1020.1
20260901031135 15 191 1.6 3.2 0.00 0.00 0.00 77 1020.2
20260901030629 15 214 4.8 6.4 0.00 0.00 0.00 77 1020.0
20260901030124 15 260 4.8 4.8 0.00 0.00 0.00 78 1020.1
20260901025623 15 214 6.4 6.4 0.00 0.00 0.00 77 1020.1
20260901025119 16 218 9.7 14.5 0.00 0.00 0.00 76 1020.1
20260901024619 16 213 12.9 14.5 0.00 0.00 0.00 74 1019.9
20260901024117 16 206 12.9 16.1 0.00 0.00 0.00 71 1019.8
20260901023616 16 207 16.1 20.9 0.00 0.00 0.00 69 1019.5
20260901023111 16 215 4.8 11.3 0.00 0.00 0.00 68 1019.3
20260901022607 17 262 6.4 11.3 0.00 0.00 0.00 68 1019.4
20260901022102 17 218 4.8 6.4 0.00 0.00 0.00 66 1019.3
20260901021558 18 204 6.4 9.7 0.00 0.00 0.00 63 1019.4
20260901021052 18 253 8.0 9.7 0.00 0.00 0.00 61 1019.2
20260901020548 19 226 11.3 14.5 0.00 0.00 0.00 59 1019.0
20260901020043 21 211 8.0 12.9 0.00 0.00 0.00 53 1019.0
20260901015539 22 192 6.4 9.7 0.00 0.00 0.00 45 1019.0
20260901015039 23 195 4.8 4.8 0.00 0.00 0.00 41 1018.4
20260901014534 23 176 3.2 3.2 0.00 0.00 0.00 37 1017.8
20260901014030 23 140 0.0 1.6 0.00 0.00 0.00 36 1017.4
20260901013526 23 141 0.0 0.0 0.00 0.00 0.00 36 1017.5
20260901013021 23 136 1.6 3.2 0.00 0.00 0.00 37 1017.4
20260901012521 23 129 3.2 1.6 0.00 0.00 0.00 39 1017.4
20260901012016 23 128 0.0 0.0 0.00 0.00 0.00 39 1017.4
20260901011513 23 127 0.0 0.0 0.00 0.00 0.00 39 1017.5
20260901011010 23 127 1.6 1.6 0.00 0.00 0.00 40 1017.2
20260901010505 24 128 0.0 0.0 0.00 0.00 0.00 39 1017.5
20260901010005 24 128 0.0 0.0 0.00 0.00 0.00 37 1017.4
20260901005500 25 128 0.0 0.0 0.00 0.00 0.00 38 1017.4
20260901004954 25 128 1.6 1.6 0.00 0.00 0.00 37 1017.5
20260901004454 25 128 0.0 0.0 0.00 0.00 0.00 38 1017.5
20260901003949 25 138 1.6 1.6 0.00 0.00 0.00 38 1017.4
20260901003444 25 138 0.0 0.0 0.00 0.00 0.00 40 1017.2
20260901002942 25 141 0.0 1.6 0.00 0.00 0.00 42 1017.4
20260901002442 25 141 0.0 0.0 0.00 0.00 0.00 41 1017.5
20260901001937 25 137 0.0 0.0 0.00 0.00 0.00 42 1017.5
20260901001432 25 137 0.0 0.0 0.00 0.00 0.00 42 1017.5
20260901000927 25 135 0.0 0.0 0.00 0.00 0.00 42 1017.5
20260901000422 25 154 1.6 1.6 0.00 0.00 0.00 41 1017.4
20260831235921 25 155 1.6 3.2 0.00 0.00 0.00 41 1017.2
20260831235417 25 157 1.6 1.6 0.00 0.00 0.00 42 1017.5
20260831234918 25 157 0.0 0.0 0.00 0.00 0.00 41 1017.4
20260831234418 25 157 1.6 1.6 0.00 0.00 0.00 42 1017.2
20260831233913 25 158 0.0 0.0 0.00 0.00 0.00 42 1017.4
20260831233408 26 158 1.6 1.6 0.00 0.00 0.00 41 1017.5
20260831232903 26 173 1.6 1.6 0.00 0.00 0.00 39 1017.5
20260831232359 26 150 4.8 6.4 0.00 0.00 0.00 37 1017.4
20260831231855 26 141 3.2 3.2 0.00 0.00 0.00 38 1017.0
20260831231352 26 134 1.6 1.6 0.00 0.00 0.00 39 1017.0
20260831230847 26 148 1.6 1.6 0.00 0.00 0.00 39 1017.1
20260831230341 26 155 1.6 1.6 0.00 0.00 0.00 40 1017.0
20260831225841 26 158 1.6 1.6 0.00 0.00 0.00 38 1017.1
20260831225336 26 149 0.0 0.0 0.00 0.00 0.00 39 1016.9
20260831224832 26 145 1.6 1.6 0.00 0.00 0.00 37 1017.0
20260831224326 26 151 3.2 3.2 0.00 0.00 0.00 38 1017.0
20260831223821 26 152 1.6 1.6 0.00 0.00 0.00 40 1017.0
20260831223318 26 143 4.8 4.8 0.00 0.00 0.00 37 1017.2
20260831222815 26 146 1.6 1.6 0.00 0.00 0.00 38 1017.1
20260831222310 26 150 1.6 1.6 0.00 0.00 0.00 37 1017.2
20260831221805 26 152 3.2 1.6 0.00 0.00 0.00 38 1017.1
20260831221300 26 170 3.2 1.6 0.00 0.00 0.00 38 1017.1
20260831220800 26 146 3.2 3.2 0.00 0.00 0.00 37 1017.2
20260831220255 26 180 1.6 1.6 0.00 0.00 0.00 37 1017.1
20260831215750 27 167 3.2 3.2 0.00 0.00 0.00 36 1017.1
20260831215246 27 150 1.6 1.6 0.00 0.00 0.00 35 1017.4
20260831214743 27 180 3.2 3.2 0.00 0.00 0.00 32 1017.2
20260831214240 27 192 3.2 3.2 0.00 0.00 0.00 34 1017.2
20260831213735 27 154 3.2 3.2 0.00 0.00 0.00 35 1017.5
20260831213232 27 162 3.2 3.2 0.00 0.00 0.00 33 1017.6
20260831212726 28 185 4.8 4.8 0.00 0.00 0.00 31 1017.5
20260831212223 28 124 6.4 6.4 0.00 0.00 0.00 32 1017.6
20260831211721 28 171 3.2 3.2 0.00 0.00 0.00 31 1017.9
20260831211217 28 162 3.2 3.2 0.00 0.00 0.00 32 1017.8
20260831210717 28 168 1.6 3.2 0.00 0.00 0.00 32 1017.8
20260831210213 28 167 8.0 11.3 0.00 0.00 0.00 31 1017.8
20260831205712 28 171 3.2 3.2 0.00 0.00 0.00 30 1017.9
20260831205209 27 153 1.6 1.6 0.00 0.00 0.00 31 1018.2
20260831204709 27 192 3.2 4.8 0.00 0.00 0.00 31 1018.0
20260831204208 27 157 4.8 4.8 0.00 0.00 0.00 32 1018.4
20260831203702 28 196 4.8 4.8 0.00 0.00 0.00 29 1018.4
20260831203201 28 188 3.2 4.8 0.00 0.00 0.00 28 1018.5
20260831202700 28 154 3.2 1.6 0.00 0.00 0.00 29 1018.5
20260831202155 28 142 4.8 4.8 0.00 0.00 0.00 29 1018.4
20260831201655 28 207 3.2 3.2 0.00 0.00 0.00 28 1018.6
20260831201154 28 233 6.4 6.4 0.00 0.00 0.00 27 1018.9
20260831200651 27 128 3.2 3.2 0.00 0.00 0.00 29 1019.0
20260831200151 27 123 3.2 3.2 0.00 0.00 0.00 29 1018.9
20260831195646 27 178 3.2 3.2 0.00 0.00 0.00 29 1018.9
20260831195141 27 154 3.2 3.2 0.00 0.00 0.00 29 1018.9
20260831194636 26 128 3.2 3.2 0.00 0.00 0.00 30 1019.1
20260831194132 27 142 4.8 4.8 0.00 0.00 0.00 29 1019.1
20260831193632 26 143 1.6 3.2 0.00 0.00 0.00 31 1019.1
20260831193127 26 154 3.2 3.2 0.00 0.00 0.00 31 1019.2
20260831192622 26 213 1.6 3.2 0.00 0.00 0.00 32 1019.2
20260831192117 26 199 1.6 1.6 0.00 0.00 0.00 31 1019.4
20260831191614 25 149 4.8 4.8 0.00 0.00 0.00 30 1019.3
20260831191109 25 161 3.2 3.2 0.00 0.00 0.00 31 1019.5
20260831190604 25 214 1.6 1.6 0.00 0.00 0.00 29 1019.5
20260831185559 25 90 0.0 0.0 0.00 0.00 0.00 28 1019.7
20260831185054 25 225 1.6 1.6 0.00 0.00 0.00 28 1019.7
20260831184554 25 125 0.0 0.0 0.00 0.00 0.00 32 1019.8
20260831184049 24 125 0.0 0.0 0.00 0.00 0.00 30 1019.7
20260831183549 25 119 1.6 1.6 0.00 0.00 0.00 29 1019.9
20260831183049 25 112 3.2 3.2 0.00 0.00 0.00 29 1020.0
20260831182548 25 107 1.6 1.6 0.00 0.00 0.00 29 1020.1
20260831182044 25 169 1.6 1.6 0.00 0.00 0.00 30 1020.3
20260831181544 24 194 0.0 0.0 0.00 0.00 0.00 31 1020.3
20260831181044 23 204 0.0 0.0 0.00 0.00 0.00 31 1020.3
20260831180539 23 207 0.0 0.0 0.00 0.00 0.00 30 1020.5
20260831180034 23 281 0.0 0.0 0.00 0.00 0.00 29 1020.5
20260831175529 23 282 1.6 1.6 0.00 0.00 0.00 29 1020.3
20260831175027 22 124 0.0 0.0 0.00 0.00 0.00 33 1020.7
20260831174527 21 56 1.6 0.0 0.00 0.00 0.00 34 1020.5
20260831174026 21 191 3.2 3.2 0.00 0.00 0.00 33 1020.7
20260831173525 21 303 1.6 1.6 0.00 0.00 0.00 33 1020.7
20260831173021 21 303 1.6 1.6 0.00 0.00 0.00 33 1020.7
20260831172516 21 42 1.6 1.6 0.00 0.00 0.00 36 1020.7
20260831172011 20 183 0.0 0.0 0.00 0.00 0.00 37 1020.6
20260831171507 21 207 0.0 0.0 0.00 0.00 0.00 35 1020.7
20260831171004 20 149 1.6 3.2 0.00 0.00 0.00 37 1020.9
20260831170459 20 152 1.6 1.6 0.00 0.00 0.00 38 1020.9
20260831165956 20 151 0.0 0.0 0.00 0.00 0.00 39 1020.8
20260831165457 19 152 3.2 3.2 0.00 0.00 0.00 38 1020.8
20260831164954 19 144 1.6 1.6 0.00 0.00 0.00 39 1020.9
20260831164449 18 132 1.6 1.6 0.00 0.00 0.00 40 1021.0
20260831163944 18 114 1.6 1.6 0.00 0.00 0.00 41 1020.8
20260831163440 18 114 1.6 1.6 0.00 0.00 0.00 43 1021.0
20260831162938 18 114 1.6 1.6 0.00 0.00 0.00 42 1020.9
20260831162434 18 120 1.6 1.6 0.00 0.00 0.00 40 1021.2
20260831161932 17 121 1.6 1.6 0.00 0.00 0.00 41 1021.0
20260831161429 17 120 0.0 0.0 0.00 0.00 0.00 42 1021.0